weather.gov     
National Weather Service

Regional Weather Roundup
NWS Homepage
This page is being discontinued on March 12, 2014.
The same data is available at this site. Please update your bookmarks.
Thank you, and we apologize for the inconvenience.
Please send an email to SR-SRH.Webmaster@noaa.gov with any concerns.


Current Version
Previous Version:    01  02  03  04  05  06  07  08  09  10  11  12  13  14  15  16  17  18  19  20  21  22  23  24  25  26  27  28  29  30  
   31  32  33  34  35  36  37  38  39  40  41  42  43  44  45  46  47  48  49  50  51  52  53  54  55  56  57  58  59  60  
[Printable]
722
ASUS44 KFWD 201815
RWRTX
NORTH TEXAS HOURLY WEATHER ROUNDUP
NATIONAL WEATHER SERVICE FORT WORTH TX
100 PM CDT SUN APR 20 2014

NOTE: "FAIR" INDICATES FEW OR NO CLOUDS BELOW 12,000 FEET WITH NO
SIGNIFICANT WEATHER AND/OR OBSTRUCTIONS TO VISIBILITY.

TXZ118-119-201900-
DALLAS/FORT WORTH METROPLEX

CITY           SKY/WX    TMP DP  RH WIND       PRES   REMARKS
DFW AIRPORT    CLOUDY    79  52  38 S20G25    30.11F
6HR MIN TEMP:  65; 6HR MAX TEMP:  79;

DALLAS LOVE    PTSUNNY   78  51  38 S17G23    30.12F
6HR MIN TEMP:  65; 6HR MAX TEMP:  79; 6HR PCP: TRACE;

FTW MEACHAM    CLOUDY    79  53  40 S18G25    30.10F
6HR MIN TEMP:  65; 6HR MAX TEMP:  79;

DAL-EXECUTIVE  PTSUNNY   77  53  43 S12G20    30.12F
6HR MIN TEMP:  64; 6HR MAX TEMP:  78; 6HR PCP: TRACE;

FTW-ALLIANCE   PTSUNNY   76  54  46 S14G21    30.10F
6HR MIN TEMP:  61; 6HR MAX TEMP:  76; 6HR PCP: TRACE;

FTW-NAS-JRB    CLOUDY    78  47  33 S20G33    30.15F
6HR MIN TEMP:  66; 6HR MAX TEMP:  80;

FTW-SPINKS     PTSUNNY   75  50  41 S21       30.13F
ARLINGTON      CLOUDY    77  54  44 S14G24    30.12S
6HR MIN TEMP:  62; 6HR MAX TEMP:  78;

GRAND PRAIRIE  SUNNY     77  48  36 S16G25    30.14F
ADDISON        PTSUNNY   75  52  43 S12G18    30.12F
MESQUITE       SUNNY     73  54  49 S16G22    30.14F
LANCASTER      LGT RAIN  72  56  56 S12G21    30.15S
6HR MIN TEMP:  60; 6HR MAX TEMP:  75; 6HR PCP:  0.02;

$$

TXZ091>094-102>105-117-120-121-131>134-201900-
NORTH CENTRAL TEXAS

CITY           SKY/WX    TMP DP  RH WIND       PRES   REMARKS
SHRMAN/DENISON MOSUNNY   76  52  42 S17G24    30.13F
6HR MIN TEMP:  62; 6HR MAX TEMP:  77;

GAINESVILLE    CLOUDY    72  56  57 SE14      30.13F
6HR MIN TEMP:  58; 6HR MAX TEMP:  73;

BOWIE          PTSUNNY   69  57  67 SE5       30.11F
6HR MIN TEMP:  59; 6HR MAX TEMP:  69;

BRIDGEPORT     PTSUNNY   74  49  42 S7        30.12F
6HR MIN TEMP:  61; 6HR MAX TEMP:  75; 6HR PCP:  0.01;

DECATUR        MOSUNNY   73  52  47 S13       30.10F
6HR MIN TEMP:  61; 6HR MAX TEMP:  73; 6HR PCP:  0.01;

DENTON         MOSUNNY   78  54  43 S15       30.11F
6HR MIN TEMP:  61; 6HR MAX TEMP:  78; 6HR PCP: TRACE;

MCKINNEY       MOSUNNY   76  56  49 S15G25    30.12F
6HR MIN TEMP:  61; 6HR MAX TEMP:  77;

GREENVILLE     PTSUNNY   75  52  43 SE12      30.14S
ROCKWALL       MOSUNNY   79  56  44 SE17G23   30.12F
6HR MIN TEMP:  61; 6HR MAX TEMP:  79;

TERRELL        MOSUNNY   75  55  49 S12       30.14F
6HR MIN TEMP:  61; 6HR MAX TEMP:  76;

WAXAHACHIE     PTSUNNY   75  53  46 S16G22    30.14R
6HR MIN TEMP:  60; 6HR MAX TEMP:  75;

CLEBURNE       PTSUNNY   73  57  56 S14       30.14F
GRANBURY       CLOUDY    77  53  42 SE16G24   30.11F
6HR MIN TEMP:  64; 6HR MAX TEMP:  78;

$$

TXZ083>090-098>101-113>116-127>130-139>142-154-155-201900-
WESTERN NORTH TEXAS

CITY           SKY/WX    TMP DP  RH WIND       PRES   REMARKS
WICHITA FALLS  CLOUDY    63  60  90 SE9       30.08F
6HR MIN TEMP:  60; 6HR MAX TEMP:  69; 6HR PCP:  0.11;

WF-KICKAPOO    CLOUDY    64  59  85 E7        30.09F
6HR MIN TEMP:  63; 6HR MAX TEMP:  67; 6HR PCP:  0.01;

VERNON         PTSUNNY   72  57  59 SE5       30.06F
ABILENE        LGT RAIN  64  62  93 S8        30.09F
6HR MIN TEMP:  63; 6HR MAX TEMP:  69; 6HR PCP:  0.18;

ABILENE-DYESS  LGT RAIN  67  60  78 S9        30.09S FOG
6HR MIN TEMP:  63; 6HR MAX TEMP:  69; 6HR PCP:  0.01;

BRECKENRIDGE   CLOUDY    75  54  47 S9G21     30.07F
6HR MIN TEMP:  65; 6HR MAX TEMP:  77;

GRAHAM         PTSUNNY   76  52  42 S10G17    30.06F
6HR MIN TEMP:  63; 6HR MAX TEMP:  77;

MINERAL WELLS  CLOUDY    76  54  46 S12       30.08F
6HR MIN TEMP:  59; 6HR MAX TEMP:  77; 6HR PCP:  0.05;

STEPHENVILLE   PTSUNNY   72  58  61 S10G17    30.13F
6HR MIN TEMP:  60; 6HR MAX TEMP:  74;

COMANCHE       CLOUDY    71  59  66 S9G16     30.11F
6HR MIN TEMP:  60; 6HR MAX TEMP:  73; 6HR PCP:  0.01;

BROWNWOOD      CLOUDY    72  59  64 S13       30.10F
COLEMAN        CLOUDY    70  58  66 S8        30.10F
6HR MIN TEMP:  59; 6HR MAX TEMP:  71;

$$

TXZ143>147-156>162-174-175-201900-
CENTRAL TEXAS

CITY           SKY/WX    TMP DP  RH WIND       PRES   REMARKS
WACO           CLOUDY    71  63  75 S9        30.14S
6HR MIN TEMP:  56; 6HR MAX TEMP:  71; 6HR PCP:  0.02;

WACO-TSTC      SUNNY     72  55  56 S6        30.14F
WACO-MCGREGOR  PTSUNNY   75  59  57 S15       30.14F
6HR MIN TEMP:  55; 6HR MAX TEMP:  75; 6HR PCP:  0.01;

HILLSBORO      PTSUNNY   72  54  52 S14       30.13F
6HR MIN TEMP:  60; 6HR MAX TEMP:  75;

CORSICANA      PTSUNNY   74  55  51 S12       30.16R
6HR MIN TEMP:  60; 6HR MAX TEMP:  76; 6HR PCP: TRACE;

MEXIA          LGT RAIN  70  57  63 S10       30.14S
6HR MIN TEMP:  57; 6HR MAX TEMP:  74;

HEARNE         MOSUNNY   77  57  50 S16       30.14F
6HR MIN TEMP:  59; 6HR MAX TEMP:  77;

CAMERON        MOSUNNY   77  59  53 SE8       30.13F
6HR MIN TEMP:  58; 6HR MAX TEMP:  77;

TEMPLE         PTSUNNY   73  57  56 S16       30.16F
6HR MIN TEMP:  57; 6HR MAX TEMP:  73;

KILLEEN        PTSUNNY   70  61  73 SE14      30.12F
                                      6HR PCP: TRACE;

KILLEEN-SKYLRK PTSUNNY  N/A N/A N/A S13       30.11F
FORT HOOD      PTSUNNY   77  60  55 S14G21    30.11F
6HR MIN TEMP:  62; 6HR MAX TEMP:  77;

GATESVILLE     PTSUNNY   72  61  68 S10G18    30.14F
HAMILTON       CLOUDY    67  61  80 S12       30.14F
6HR MIN TEMP:  60; 6HR MAX TEMP:  70;

LAMPASAS       CLOUDY    68  63  84 SE9       30.13F
6HR MIN TEMP:  60; 6HR MAX TEMP:  68;

$$

TXZ095>097-106>112-122>126-135>138-148>153-164>167-201900-
EAST TEXAS

CITY           SKY/WX    TMP DP  RH WIND       PRES   REMARKS
PARIS          MOSUNNY   75  59  57 SE10      30.14F
6HR MIN TEMP:  55; 6HR MAX TEMP:  75;

SULPHUR SPRNGS MOSUNNY   77  56  48 S9        30.15F
6HR MIN TEMP:  61; 6HR MAX TEMP:  77;

CLARKSVILLE    PTSUNNY   79  56  46 SE5       30.14F
6HR MIN TEMP:  57; 6HR MAX TEMP:  79;

MOUNT PLEASANT MOSUNNY   78  56  47 SE9       30.15F
6HR MIN TEMP:  54; 6HR MAX TEMP:  78;

GILMER         MOSUNNY   79  55  44 S8G17     30.15F
MINEOLA        MOSUNNY   75  55  50 SE9       30.14F
TYLER          PTSUNNY   79  55  43 S10       30.14F
6HR MIN TEMP:  59; 6HR MAX TEMP:  79;

LONGVIEW       PTSUNNY   77  56  48 SE9       30.14F
6HR MIN TEMP:  58; 6HR MAX TEMP:  79;

MARSHALL       MOSUNNY   77  54  44 S5        30.16F
6HR MIN TEMP:  54; 6HR MAX TEMP:  77;

ATHENS         MOSUNNY   75  55  50 S13G20    30.14S
PALESTINE      MOSUNNY   76  54  45 S12G17    30.18R
JACKSONVILLE   MOSUNNY   76  53  44 S10G17    30.17F
HENDERSON      MOSUNNY   80  52  38 S9        30.15F
6HR MIN TEMP:  54; 6HR MAX TEMP:  80;

NACOGDOCHES    MOSUNNY   77  57  50 SE8       30.16S
6HR MIN TEMP:  52; 6HR MAX TEMP:  79;

LUFKIN         MOSUNNY   82  56  40 SE13      30.15F
6HR MIN TEMP:  55; 6HR MAX TEMP:  82;

$$

SUPPLEMENTAL OBSERVATIONS (CENTRAL)

CITY           SKY/WX    TMP DP  RH WIND       PRES   REMARKS
LAKE TEXOMA      N/A     73  50  43 S10         N/A
PAT MAYSE LAKE   N/A     73  54  49 SE12        N/A
ATHENS           N/A     79  55  44 S13         N/A
LAKE LIMESTONE   N/A     77  59  53 S9          N/A
MCGREGOR         N/A     77  57  50 S18         N/A
$$

SUPPLEMENTAL OBSERVATIONS (WEST)

CITY           SKY/WX    TMP DP  RH WIND       PRES   REMARKS
MILLERS CREEK    N/A     75  54  46 SW13        N/A
COMANCHE         N/A     70  59  68 S13         N/A




U.S. Dept. of Commerce
NOAA National Weather Service
1325 East West Highway
Silver Spring, MD 20910
E-mail: w-nws.webmaster@noaa.gov
Page last modified: May 16, 2007
NATIONAL WEATHER SERVICE: for Safety, for Work, for Fun - FOR LIFE